Location: Cartignies
(50.0929°N, 3.8447°E)
Time: 14:18:07
(UTC+00:00)

ARIANE 5 R/B - Pass Details

Date: 12 January 2026
Orbit: 746 x 793 km, 98.8° (Epoch: 16 February)

Event Time Altitude Azimuth Distance (km) Brightness Sun altitude
Rises 18:07:48 0° 189° (S) 3,277 6.0 -18.7°
Reaches altitude 10° 18:10:19 10° 199° (SSW) 2,355 5.4 -19.1°
Maximum altitude 18:15:02 35° 264° (W) 1,275 4.3 -19.8°
Drops below altitude 10° 18:19:48 10° 329° (NNW) 2,368 5.3 -20.6°
Sets 18:22:21 0° 339° (NNW) 3,299 5.9 -21.0°
